Tracking 20943 objects as of 16-Jul-2020
HD Live streaming from Space Station
objects crossing your sky now

EXPRESS 2

Track EXPRESS 2 now!
EXPRESS 2 is classified as:


NORAD ID: 24435
Int'l Code: 1996-058A
Perigee: 35,767.8 km
Apogee: 35,854.0 km
Inclination: 14.7 °
Period: 1,437.0 minutes
Semi major axis: 42181 km
RCS: 10 m2 (large)
Launch date: September 26, 1996
Source: Commonwealth of Independent States (former USSR) (CIS)
Launch site: TYURATAM MISSILE AND SPACE COMPLEX (TTMTR)
aabbcc
Your satellite tracking list
Your tracking list is empty




NASA's NSSDC Master Catalog

Two Line Element Set (TLE):
1 24435U 96058A   20197.49414698 -.00000116  00000-0  00000+0 0  9998
2 24435  14.6577  11.5649 0010208 342.2806 195.1344  1.00210622 87165
Source of the keplerian elements: AFSPC